GFSNGP_sfc_dewp_057.txt.gz
Dewpoint
35 35 35 31 30 30 28 26 25 25 26 26 29 29 30 32 32 32 33 34 34 37 42 45 47 50 50 50 51 51 49 49 50 52 52 52 52 53 53 54 53 54 55 55
30 31 32 28 28 24 27 26 26 26 26 29 32 31 30 32 32 31 32 33 34 35 38 43 46 48 50 51 52 52 51 50 50 51 51 52 52 53 54 54 55 55 56 55
23 31 28 24 29 26 29 29 29 25 23 25 36 36 34 32 32 33 34 34 34 35 36 40 44 48 49 51 52 53 52 52 51 51 51 52 52 52 53 54 55 56 56 56
28 29 17 21 30 29 30 29 27 23 23 36 38 39 38 35 32 34 34 34 36 36 38 38 39 44 49 49 51 52 52 52 52 52 52 51 51 52 54 55 56 55 55 55
28 26 25 20 24 32 29 21 31 34 38 38 39 39 36 37 40 41 41 37 34 35 37 38 38 42 46 49 49 50 51 52 52 53 53 53 54 54 55 54 51 48 48 47
30 24 20 22 24 34 30 20 34 36 37 37 38 37 37 39 42 43 41 40 38 37 36 37 39 45 47 48 49 50 51 52 53 53 54 55 54 52 47 47 44 43 41 42
29 28 28 30 31 35 22 22 33 37 38 37 37 38 39 42 42 41 42 44 47 48 46 48 49 51 50 52 51 52 53 53 52 51 49 47 45 44 42 40 38 35 34 36
30 28 23 32 37 31 36 38 37 38 37 38 39 41 41 41 40 41 42 44 46 47 47 49 51 53 51 48 48 48 47 45 44 44 43 42 41 41 38 36 33 32 31 30
30 29 33 39 39 39 40 40 41 40 39 40 42 42 41 39 40 41 42 43 44 44 44 43 45 48 46 44 44 43 42 41 40 40 40 39 38 36 35 34 33 32 30 28
32 31 34 39 40 38 39 38 36 38 35 34 33 35 37 40 40 40 41 41 41 41 41 41 42 43 43 43 42 40 38 37 36 35 34 34 34 35 33 32 31 30 29 27
32 33 36 39 38 37 36 36 35 34 32 30 29 30 34 31 32 32 32 33 35 35 36 35 36 36 37 38 37 36 34 33 32 31 30 30 30 31 31 31 32 31 29 27
31 36 36 36 36 34 35 33 32 30 30 29 28 28 28 27 28 28 29 29 29 29 29 29 30 31 32 33 34 33 31 30 30 30 29 28 27 27 30 29 29 28 27 26
35 37 37 39 34 32 31 30 29 26 25 25 26 27 27 27 27 27 26 27 27 27 27 28 28 29 30 30 30 29 28 28 28 27 27 26 26 25 23 27 29 29 28 28
34 36 37 34 32 30 29 28 26 24 23 23 23 24 24 23 23 23 23 23 23 23 24 25 25 26 29 30 29 28 28 28 27 27 27 27 27 27 26 24 24 24 27 26
30 32 35 32 29 28 27 26 24 23 22 22 22 21 21 20 19 19 20 20 20 20 21 22 22 24 26 26 25 26 27 26 27 26 26 27 27 26 25 24 23 22 22 21
28 30 31 28 27 26 26 25 23 24 24 23 22 21 19 18 17 17 18 18 17 18 20 20 20 23 24 24 24 23 23 23 24 25 24 24 24 23 23 22 21 20 19 19
25 27 26 24 23 23 23 24 23 21 19 18 20 20 19 17 16 16 17 18 18 18 19 19 20 21 22 23 23 22 22 22 21 21 20 20 20 20 20 19 18 17 17 18
25 25 25 24 22 21 21 21 20 19 17 17 17 16 16 15 14 15 16 17 16 15 17 18 19 19 19 20 20 19 19 19 18 17 17 17 16 16 16 15 15 14 14 13
23 22 22 21 21 20 19 18 18 18 18 17 14 13 14 13 14 14 15 14 13 12 14 17 17 16 16 17 16 16 16 15 14 14 13 13 13 12 12 12 11 11 11 10
20 20 20 20 20 19 18 19 18 16 17 16 14 13 12 13 14 13 12 10 11 11 12 11 11 11 10 10 11 10 11 11 9 9 9 9 9 9 9 6 7 8 9 8
18 18 18 17 16 17 17 18 16 14 14 14 12 11 10 11 12 12 8 6 7 8 7 7 7 6 6 6 6 9 8 7 7 5 5 5 5 4 5 5 4 5 5 5
18 17 16 16 15 15 16 16 15 14 14 13 12 11 10 9 8 7 8 6 5 5 5 5 4 3 3 5 5 6 5 4 4 4 3 3 3 2 1 1 1 1 2 2
18 17 17 15 14 14 14 14 13 12 11 10 9 9 9 8 7 5 4 6 5 4 3 3 1 0 1 4 3 3 2 1 1 1 0 -0 -0 -0 -0 -1 -1 -1 -2 -2
18 17 16 16 14 12 11 12 12 12 11 10 9 9 8 7 7 6 5 1 -1 1 1 1 -1 -4 -1 2 2 1 1 1 -0 -0 -1 -5 -2 -2 -2 -3 -4 -3 -4 -5
15 14 13 12 11 10 9 9 8 7 7 6 6 6 7 6 5 4 3 2 1 -1 -1 -8 -7 -6 -0 0 0 -1 -1 -1 -2 -2 -2 -2 -3 -4 -4 -4 -6 -6 -7 -7
11 9 9 9 9 8 7 6 6 6 5 4 3 3 3 3 2 2 0 -2 -1 -4 -2 -3 -4 -2 -2 -2 -2 -3 -2 -2 -2 -3 -5 -4 -5 -5 -7 -8 -9 -10 -11 -11
7 7 6 5 4 5 5 4 5 3 2 3 2 3 1 1 0 -0 -5 -1 -2 -3 -4 -4 -4 -4 -3 -2 -2 -3 -3 -3 -9 -5 -6 -6 -7 -8 -11 -12 -12 -12 -13 -14

GFSNGP_sfc_dewp_060.txt.gz
Dewpoint
30 30 30 29 28 27 27 27 25 23 22 23 25 29 32 32 31 30 31 30 33 34 37 42 46 49 50 51 52 52 51 50 52 54 54 53 54 54 54 54 54 53 54 54
25 26 28 25 24 25 24 27 27 26 25 28 25 27 33 35 34 33 32 32 32 32 33 35 40 45 49 50 51 52 52 51 51 52 52 53 52 53 53 53 53 53 53 53
19 25 25 21 23 22 27 29 29 27 27 24 21 28 34 36 35 35 37 36 35 33 34 36 38 41 45 49 51 52 52 51 51 51 51 52 52 52 52 53 54 53 54 54
23 29 18 20 29 27 29 28 29 23 23 29 33 36 36 37 40 40 41 41 41 41 40 36 37 38 44 45 49 51 51 51 51 51 51 52 52 52 53 54 54 55 55 55
26 22 17 17 23 26 29 22 27 27 29 31 33 37 35 38 40 41 41 42 42 43 42 41 39 38 38 41 44 48 50 51 51 52 51 51 52 53 53 54 55 56 55 56
31 22 20 20 27 31 27 17 27 28 29 31 32 35 33 39 41 40 41 43 45 47 48 47 44 43 40 41 43 45 48 49 51 52 52 52 53 54 55 55 54 49 43 43
29 26 24 27 28 32 20 28 35 34 33 34 33 36 39 41 40 40 41 43 46 48 48 48 50 51 47 44 45 47 50 50 51 52 53 54 54 52 48 43 39 37 35 36
27 26 23 32 31 26 38 38 40 40 41 40 38 40 40 39 40 41 41 42 44 45 46 45 46 51 50 50 51 52 51 49 48 47 46 46 44 41 40 38 35 33 32 31
26 26 37 39 39 40 41 40 39 39 39 38 39 38 38 39 37 37 37 37 40 41 40 40 41 44 44 44 44 43 42 40 39 39 39 40 40 39 38 36 34 32 30 29
30 26 32 38 39 39 39 38 37 36 36 35 36 35 36 34 33 34 32 33 34 35 33 33 34 36 38 41 40 40 38 35 34 35 33 34 34 34 34 33 32 30 29 27
26 27 35 38 38 38 38 38 36 34 34 32 33 33 33 33 32 32 30 31 31 31 30 30 31 32 34 36 36 34 33 32 32 31 29 28 29 30 30 32 32 29 28 27
27 37 36 36 37 36 36 34 33 31 31 30 30 30 31 31 31 30 29 28 28 28 28 29 29 30 31 32 33 32 31 31 31 30 29 27 26 26 29 30 29 29 29 27
35 37 37 37 35 33 33 30 29 29 27 27 27 28 28 27 27 27 26 24 25 25 26 27 27 27 30 31 32 31 30 30 29 29 28 27 27 25 23 27 29 29 29 29
35 35 35 36 34 32 30 29 27 26 26 25 25 24 24 23 22 22 22 22 22 22 23 24 25 25 27 29 28 28 28 28 29 29 29 29 29 29 28 26 25 25 27 27
30 30 32 32 29 28 27 26 25 23 22 21 22 21 21 20 20 21 21 21 20 20 21 22 22 24 26 27 26 27 27 27 28 29 29 29 29 28 27 25 24 23 23 23
27 31 29 27 26 26 26 25 23 22 22 22 21 21 21 21 20 19 19 19 17 18 20 20 21 24 26 27 27 26 25 25 27 27 27 27 27 27 25 24 23 22 21 21
27 28 27 25 25 24 23 23 22 21 21 21 21 21 19 17 16 16 18 18 18 19 19 20 21 22 24 25 25 25 25 24 24 24 23 23 23 22 21 21 19 17 17 18
25 26 26 26 24 23 23 21 20 20 19 19 19 18 17 16 16 16 18 18 16 16 17 18 19 20 20 21 22 21 21 20 19 19 18 19 18 18 18 17 16 16 15 15
22 22 23 22 22 21 20 19 18 18 18 18 17 16 16 16 15 15 16 15 14 13 13 14 13 14 14 15 17 17 18 18 16 15 15 15 16 14 15 15 14 14 13 12
21 21 21 21 21 20 18 19 18 17 18 17 17 16 14 14 14 13 11 10 10 10 11 11 11 10 10 10 11 11 14 14 10 11 13 12 13 14 12 9 10 11 12 11
20 20 19 18 18 19 18 18 16 15 16 15 14 12 11 11 11 11 9 7 9 8 7 6 6 5 5 5 6 13 12 12 11 11 11 11 10 9 9 10 9 9 9 9
19 18 17 17 16 16 17 17 17 16 14 13 12 11 11 10 9 8 8 7 6 5 5 5 4 5 5 6 7 9 8 7 8 8 8 8 8 8 7 7 6 7 7 7
19 18 18 16 16 16 16 15 14 13 12 12 11 11 10 9 9 8 5 5 4 5 4 5 4 4 5 9 9 8 7 6 6 6 6 6 6 6 5 4 5 5 4 3
19 19 18 18 16 15 14 14 12 12 11 11 11 11 9 10 9 7 5 3 2 3 3 3 3 3 4 8 7 7 7 6 6 6 5 1 5 4 3 2 2 3 2 0
18 17 16 14 12 11 11 10 9 8 8 7 7 7 7 8 9 8 8 6 2 3 5 1 0 2 6 6 5 5 5 5 3 4 3 3 3 2 2 2 -0 -0 -1 -1
13 11 11 11 10 9 9 9 9 9 9 9 9 10 10 8 7 7 6 3 3 1 4 5 3 5 5 4 4 2 3 3 3 2 0 1 1 0 -1 -2 -2 -2 -3 -3
11 10 9 8 8 8 8 7 9 8 9 10 7 8 8 8 7 4 3 5 5 4 5 4 4 2 2 2 2 2 2 2 -1 -1 0 0 -1 -1 -3 -4 -4 -4 -4 -6

GFSNGP_sfc_dewp_063.txt.gz
Dewpoint
26 27 27 19 21 21 24 26 26 27 24 24 24 27 29 31 33 32 32 33 33 33 34 38 44 48 49 50 52 53 51 50 52 55 56 55 57 57 57 57 56 56 56 57
30 28 27 26 26 24 24 24 25 24 24 26 28 23 25 32 34 35 37 37 38 38 34 34 34 40 46 48 50 52 52 52 51 53 54 55 55 56 57 57 56 57 56 55
29 26 24 25 26 24 25 24 25 24 27 30 24 23 28 32 38 39 39 39 40 40 40 41 39 38 39 43 49 50 52 52 52 53 53 55 55 54 55 56 57 56 56 56
27 27 23 21 23 24 24 26 26 26 24 26 27 28 28 37 39 40 39 41 42 43 44 45 45 43 41 38 42 48 50 51 52 53 53 53 54 54 55 55 56 55 55 55
25 23 19 15 17 25 27 25 27 24 25 25 27 29 32 39 40 39 40 41 43 45 47 48 48 48 47 41 38 40 47 49 50 52 51 52 53 54 55 55 55 56 55 55
27 21 19 20 24 27 28 25 27 28 28 29 29 28 36 38 39 39 40 41 42 44 46 45 46 47 50 48 43 39 41 44 49 50 51 52 54 55 56 56 55 55 51 45
26 25 21 21 23 28 22 29 35 34 35 34 32 34 37 40 39 39 39 39 41 43 43 40 39 41 50 50 50 52 53 51 48 50 51 52 54 54 54 51 44 39 36 36
26 23 21 28 25 28 36 38 37 38 39 40 40 40 39 39 37 37 36 36 37 40 39 36 35 36 40 42 44 46 47 45 44 45 46 47 47 44 42 39 36 35 34 32
23 22 35 38 38 39 39 38 38 39 38 38 38 37 38 37 36 35 34 35 35 36 35 34 32 33 33 37 40 39 38 37 37 36 36 37 38 38 37 37 35 32 31 29
27 33 34 39 38 38 38 38 37 37 37 36 36 36 36 36 35 34 33 33 32 33 31 31 31 31 32 34 36 36 34 33 32 31 31 32 32 33 34 32 32 30 28 26
28 32 37 37 37 37 37 37 35 35 34 34 34 34 34 34 33 32 32 31 30 30 29 28 29 30 31 33 33 33 32 31 31 30 29 28 28 29 29 30 31 29 28 27
30 37 37 37 37 36 35 34 33 32 32 31 31 31 30 30 28 27 27 27 26 26 26 26 27 27 30 31 32 30 29 29 29 28 29 26 25 26 30 30 30 29 30 28
35 36 37 37 35 34 34 32 31 30 29 29 28 28 27 25 25 25 23 23 23 23 23 24 25 26 27 30 30 29 29 29 29 29 28 27 26 25 23 27 29 29 30 29
34 34 36 34 31 31 31 30 29 27 25 25 25 23 22 21 21 20 21 23 23 22 22 23 24 26 29 29 30 29 29 30 30 30 30 29 28 27 26 24 23 23 27 26
30 31 33 31 29 28 27 26 25 23 23 23 22 22 21 21 21 21 23 25 24 22 22 22 23 25 29 29 28 27 29 30 30 30 30 30 29 28 26 25 25 24 24 25
28 31 30 29 27 27 26 26 25 24 24 23 23 23 23 22 21 20 19 19 18 19 21 21 20 24 28 30 29 27 26 26 26 27 27 27 27 26 25 23 21 20 20 23
28 28 28 26 26 25 24 24 23 22 22 22 23 23 21 20 19 19 19 19 18 19 19 19 20 21 25 27 26 25 26 24 24 25 24 23 24 23 21 20 19 17 17 20
26 26 28 27 26 24 23 23 22 21 20 20 21 20 19 18 17 18 19 19 17 16 17 17 17 18 19 22 23 22 21 20 20 19 19 20 19 19 19 18 17 17 16 15
23 23 24 24 24 21 20 20 20 20 19 19 18 16 16 16 16 15 14 13 12 11 12 14 13 13 14 14 15 16 16 16 15 14 15 15 15 14 16 16 15 15 13 12
22 23 22 21 21 19 19 19 19 18 19 19 18 16 15 15 14 13 11 10 10 10 10 10 10 10 9 10 12 12 14 14 11 12 13 13 14 14 13 10 12 13 13 12
21 21 20 19 19 19 19 19 17 16 17 16 14 12 11 11 11 13 11 8 9 9 8 6 6 6 5 7 8 14 14 13 13 12 13 13 12 11 11 11 11 11 11 11
21 20 19 18 18 18 19 19 18 17 15 14 14 14 13 12 11 8 8 8 6 6 6 5 5 6 8 8 9 12 10 10 10 10 10 11 11 10 10 9 9 9 9 8
21 20 19 18 18 18 18 16 16 15 13 12 12 12 10 9 8 9 5 5 5 5 5 5 4 6 8 12 12 11 10 9 9 9 9 9 9 8 8 6 7 7 6 5
21 21 20 20 18 16 14 14 12 12 12 11 11 12 11 12 11 8 7 5 4 6 5 5 5 5 7 11 10 9 9 9 9 9 7 4 7 6 6 5 4 5 4 3
21 19 17 15 12 12 11 10 9 8 8 7 8 7 8 8 12 10 10 8 4 7 9 3 3 4 9 9 8 7 8 8 6 6 6 6 5 5 5 4 3 2 1 2
15 13 13 12 11 10 10 10 10 11 10 11 11 12 12 11 9 10 8 4 5 4 7 8 6 7 8 7 6 5 5 5 5 4 3 4 3 3 3 1 1 1 1 0
13 11 10 9 9 10 11 10 13 12 13 13 10 12 10 11 9 7 6 8 8 8 8 8 8 5 4 4 5 5 5 5 3 1 2 3 2 2 1 0 0 -0 -1 -2

GFSNGP_sfc_dewp_069.txt.gz
Dewpoint
32 29 30 32 32 31 33 36 36 35 35 36 41 41 38 39 39 39 41 43 44 46 48 48 50 51 52 51 53 52 52 53 55 55 55 55 55 55 56 56 55 55 55 54
28 32 33 32 32 28 29 35 38 37 35 41 43 43 41 38 39 39 41 42 44 46 45 44 44 46 47 48 52 53 54 51 53 55 55 55 55 55 55 57 56 56 56 55
27 33 32 29 30 29 32 37 36 35 38 40 40 41 38 38 39 40 41 42 45 43 42 41 41 42 43 48 48 50 51 51 53 54 55 55 56 55 55 55 57 56 56 56
28 30 24 29 31 31 31 34 36 38 40 41 43 42 39 39 39 39 39 42 42 40 39 38 37 38 43 43 43 44 44 46 47 47 49 52 55 56 56 56 56 56 56 56
25 28 29 28 26 26 33 35 36 37 35 42 41 40 37 37 37 37 37 40 39 37 36 35 35 36 38 39 39 40 40 42 43 42 43 47 51 54 55 55 55 55 55 55
27 23 25 29 28 30 37 33 37 37 39 41 40 37 36 36 36 35 36 37 36 34 33 32 33 35 36 36 36 36 36 37 37 37 39 40 44 45 54 55 55 54 41 39
24 25 29 31 31 31 30 35 40 39 39 38 37 37 37 36 34 33 33 33 34 33 31 30 31 33 33 34 34 33 33 33 32 33 34 35 39 41 43 45 42 38 34 33
26 24 22 33 33 34 38 39 38 39 39 38 37 36 35 34 31 30 29 30 30 30 28 28 29 30 32 32 32 32 31 29 29 30 30 30 32 35 36 36 34 32 31 30
27 25 37 40 40 42 41 38 37 36 36 36 35 33 31 30 28 27 27 27 27 26 26 26 27 29 30 31 31 30 29 27 27 27 28 28 28 29 31 32 32 30 29 28
30 26 37 40 37 36 35 34 33 33 34 33 32 30 28 27 26 25 24 24 25 25 25 26 27 28 29 31 30 30 28 27 27 26 26 27 27 27 27 28 28 29 28 27
34 39 39 39 35 34 33 34 32 31 31 31 30 27 26 24 24 23 23 23 23 24 25 25 26 27 28 30 30 28 28 27 27 26 26 25 26 27 26 28 28 27 27 27
34 38 37 37 35 33 32 30 30 29 27 27 27 25 23 23 22 22 23 23 23 23 24 26 26 27 28 29 30 29 28 28 28 26 25 25 23 24 29 29 30 30 30 28
38 37 37 34 32 30 28 27 26 26 25 24 23 23 22 23 23 23 22 21 21 21 21 22 24 26 27 27 27 27 27 26 26 25 24 23 23 23 21 25 27 27 28 29
35 33 31 31 30 29 28 26 25 24 24 23 23 23 23 23 22 21 21 20 19 19 19 20 20 22 26 25 23 25 25 25 26 26 25 24 23 23 23 21 20 21 25 25
30 30 30 28 27 26 26 24 23 22 23 23 23 21 19 18 17 18 19 17 16 16 17 17 17 19 25 26 23 22 23 23 24 23 23 22 21 20 19 18 18 19 19 19
29 28 28 28 27 26 25 23 21 21 22 22 20 19 18 17 16 16 16 15 13 13 14 14 16 17 20 24 23 21 21 22 21 21 21 20 19 18 17 16 16 16 16 17
28 27 27 25 25 25 25 25 23 22 20 21 22 21 19 17 16 14 13 13 13 13 14 14 13 15 17 19 18 19 20 19 17 17 18 18 18 18 17 15 13 12 12 14
27 27 28 26 24 22 21 20 19 18 17 17 16 14 13 12 12 12 12 10 7 7 9 12 13 14 15 17 17 16 15 15 16 15 14 12 13 15 14 12 12 10 9 9
23 22 22 21 20 19 18 17 17 17 16 15 13 11 11 9 5 5 3 3 1 3 4 8 14 12 13 15 15 14 14 11 12 12 13 10 10 10 9 10 10 7 6 7
19 19 19 19 18 17 17 17 16 16 15 13 11 9 7 6 1 2 2 3 4 5 9 9 11 11 12 12 12 12 12 11 11 12 10 8 4 3 3 4 5 5 5 5
16 16 15 14 14 15 14 12 12 10 9 7 6 2 1 -1 2 -0 3 4 5 8 7 8 8 8 11 10 9 9 8 7 7 6 1 4 1 -0 -1 -2 -3 -5 -3 -1
16 16 15 15 15 15 13 11 11 11 10 9 5 6 4 5 1 3 1 5 6 3 4 5 5 3 7 8 9 5 6 5 3 2 1 -2 -5 -7 -12 -9 -1 -1 -8 -10
17 17 16 14 13 14 14 13 12 12 10 8 7 5 7 8 9 3 0 7 6 1 4 -0 -1 3 1 2 2 -1 -3 -4 1 2 -6 -9 -11 -11 -5 -11 -13 -3 -11 -13
18 18 17 17 16 15 13 13 12 12 9 10 6 7 14 8 6 8 6 0 -0 -3 -7 -8 -2 2 -1 -6 -7 -5 -1 -11 -12 -10 -9 -8 -12 -14 -8 -14 -14 -16 -17 -12
21 21 20 19 14 13 13 13 12 12 11 11 11 10 9 10 2 1 -1 -2 3 5 -2 -6 -4 -1 -1 -9 -3 -11 -11 -4 -9 -12 -14 -7 -7 -16 -7 -14 -18 -17 -10 -11
20 15 14 14 14 14 14 14 13 13 12 8 5 -1 1 6 7 8 3 -0 3 1 1 -4 -8 -11 -11 -11 -11 -9 -11 -5 -10 -14 -15 -15 -12 -14 -11 -15 -18 -17 -17 -19
16 14 14 12 12 11 11 13 12 9 2 4 4 -1 5 2 -2 1 2 -1 -5 -0 -7 -8 -3 -2 -8 -12 -9 -8 -10 -10 -9 -10 -14 -13 -8 -15 -13 -15 -19 -19 -19 -16

GFSNGP_sfc_dewp_075.txt.gz
Dewpoint
31 31 30 30 29 31 34 36 34 32 33 37 42 43 44 45 42 40 39 41 41 41 41 42 45 45 46 48 47 49 55 55 54 54 54 54 54 54 54 54 55 55 54 53
27 29 30 25 26 28 29 34 36 37 34 41 45 46 46 45 42 38 37 37 36 37 37 37 38 40 41 41 42 44 44 44 44 46 50 55 54 54 55 55 55 54 54 54
22 26 26 24 29 24 28 35 34 33 36 43 45 45 45 43 40 37 35 34 34 34 34 35 36 37 36 36 38 39 39 40 40 42 43 44 45 49 54 55 55 55 55 55
23 25 16 22 16 32 31 33 36 37 40 43 40 39 40 42 39 36 33 33 32 32 32 33 34 35 34 33 33 34 34 34 36 37 39 40 42 43 43 45 48 54 55 55
20 21 18 16 29 34 35 37 41 40 42 38 37 36 36 38 36 34 33 32 31 31 31 31 33 34 32 31 30 30 30 31 32 34 35 36 37 38 39 42 41 40 37 36
25 19 15 24 25 34 33 33 40 43 41 38 39 34 34 35 33 31 30 29 29 29 29 30 31 33 30 29 28 28 28 28 30 30 31 32 34 35 36 36 33 31 30 30
22 20 22 25 25 33 26 35 42 44 41 42 37 37 35 33 30 29 29 28 28 28 28 29 30 31 29 28 27 27 27 27 28 28 29 30 31 32 33 32 31 30 29 29
23 22 19 35 38 29 34 42 40 40 37 34 33 31 29 28 27 27 26 26 27 27 27 28 30 29 28 28 27 26 26 26 26 27 27 28 29 30 30 30 29 29 29 28
26 24 36 36 37 38 40 39 38 38 37 34 32 30 29 26 25 25 25 25 26 26 27 27 28 29 28 27 27 26 25 24 25 26 26 26 27 27 27 27 28 27 27 27
34 34 35 35 34 33 35 38 38 38 36 34 30 27 25 24 24 24 24 24 25 25 25 25 27 27 29 28 27 26 24 24 24 25 25 25 25 26 25 25 25 25 26 26
32 36 34 34 34 35 34 31 29 28 28 26 25 24 24 23 23 22 22 22 23 23 23 24 24 24 26 27 25 24 24 23 23 24 24 24 25 25 25 27 26 24 24 25
31 37 35 33 34 34 33 30 27 25 24 24 23 23 23 22 21 20 20 20 20 20 20 23 23 23 23 25 26 24 23 22 22 22 21 21 21 22 24 24 24 24 25 25
33 35 33 33 33 32 29 27 25 24 23 22 22 22 21 20 20 20 19 18 18 19 20 20 21 22 22 21 23 23 23 19 18 18 17 17 16 16 15 18 21 22 22 22
35 36 31 32 27 24 24 24 25 23 23 22 21 19 18 17 16 16 16 18 17 16 17 18 18 18 20 19 20 21 20 20 18 16 16 16 15 15 15 14 12 13 16 18
29 28 27 27 25 24 23 23 21 19 18 18 18 17 16 15 15 15 16 14 13 13 13 15 15 15 16 18 16 16 18 17 16 16 15 14 14 13 12 11 11 10 9 11
28 27 26 25 24 24 22 21 19 17 16 15 15 15 15 14 13 12 11 11 9 9 10 9 12 10 12 12 12 13 13 14 13 14 15 13 12 11 10 9 8 7 7 6
27 26 26 25 24 23 22 21 19 18 17 16 15 15 13 11 9 8 8 8 6 5 6 6 5 7 10 9 9 10 12 12 10 11 13 12 11 10 9 7 6 5 4 3
25 25 24 24 22 20 20 19 18 16 15 14 13 11 9 8 5 3 -0 -2 -0 2 3 3 5 8 10 10 12 12 11 12 11 10 9 8 9 8 6 5 5 3 1 0
21 21 21 19 19 18 16 15 15 14 13 12 9 5 3 -0 -3 -7 -7 -3 -3 -1 2 4 14 10 10 13 11 10 8 7 8 7 7 2 2 4 1 -1 -2 -4 -1 -1
16 17 16 16 15 14 13 13 12 10 9 6 4 2 -0 -7 -8 -5 -3 -4 -4 1 6 7 9 10 9 7 7 6 5 3 6 2 -0 -2 -7 -10 -7 -5 -4 -9 -12 -10
12 13 12 11 10 11 11 11 10 9 8 7 5 -0 -4 -8 -9 -8 -1 0 1 5 7 6 7 8 7 5 4 -1 -1 -4 -6 -7 -11 -15 -13 -12 -16 -20 -19 -20 -18 -18
12 11 10 11 10 9 10 9 8 4 2 -2 -7 -8 -4 0 -3 -1 -6 2 5 -1 3 4 4 -4 0 1 1 -5 -2 -3 -6 -7 -13 -17 -20 -22 -22 -22 -21 -22 -23 -24
13 13 12 11 11 11 10 9 8 7 3 2 2 1 4 7 6 0 -1 5 4 -1 4 -1 -4 -6 -8 -11 -12 -16 -15 -15 -16 -17 -18 -21 -22 -24 -21 -20 -22 -25 -25 -21
14 14 13 13 13 13 11 12 11 10 6 9 5 1 6 1 -2 6 5 0 -7 -10 -9 -11 -9 -8 -12 -17 -18 -19 -20 -21 -21 -23 -18 -18 -23 -23 -23 -25 -22 -26 -26 -21
16 16 15 15 13 13 11 11 11 10 10 9 10 11 8 8 -1 -1 -6 -5 -2 -4 -9 -13 -9 -12 -19 -21 -21 -20 -20 -20 -21 -23 -23 -22 -21 -21 -23 -25 -25 -25 -26 -26
19 18 17 16 15 15 14 13 10 11 10 5 4 -6 -8 -4 -0 -1 -7 -7 -3 -3 -8 -14 -17 -19 -19 -17 -19 -20 -19 -12 -16 -19 -22 -21 -23 -21 -21 -21 -24 -23 -25 -25
14 11 11 11 11 11 11 12 9 7 7 6 4 -1 -4 -11 -11 -5 -7 -10 -10 -10 -14 -17 -18 -13 -14 -16 -16 -15 -17 -13 -10 -10 -16 -20 -24 -23 -20 -17 -19 -20 -24 -28

GFSNGP_sfc_dewp_081.txt.gz
Dewpoint
28 28 29 29 25 23 23 26 26 22 25 28 35 40 44 40 38 36 35 35 36 37 37 39 40 42 44 45 47 51 48 48 48 49 54 55 55 56 56 56 54 54 55 55
25 26 21 17 15 16 19 22 24 26 28 33 37 42 44 39 37 35 34 34 34 34 34 34 35 37 38 39 40 41 41 41 42 43 44 46 47 47 50 50 49 55 54 54
16 22 19 11 17 16 21 29 30 29 31 34 40 43 43 39 36 34 34 33 33 33 33 31 31 32 34 34 35 35 36 37 38 39 40 41 41 42 43 42 41 41 40 43
19 20 5 12 19 22 22 28 25 30 38 40 40 39 38 38 36 34 33 32 32 32 32 31 30 30 31 32 33 33 33 33 34 36 37 38 37 38 37 36 35 35 35 35
19 18 14 19 23 23 22 17 40 40 40 39 36 34 33 34 34 33 33 33 32 31 31 30 29 29 29 29 29 30 30 31 32 33 34 35 35 34 33 32 32 31 31 31
24 14 8 15 29 35 33 23 37 38 40 37 37 34 31 35 32 31 31 32 31 32 30 30 29 28 27 27 28 28 28 28 30 31 32 32 33 32 32 31 30 29 29 30
23 20 20 32 35 37 15 28 37 37 39 40 37 34 32 32 31 31 30 29 29 29 30 30 28 27 26 26 26 27 27 28 28 28 29 30 30 30 30 30 30 30 29 29
24 21 17 34 33 30 35 38 35 34 34 31 31 30 30 30 29 27 27 27 27 26 26 28 27 27 25 25 26 26 26 26 27 27 27 28 29 29 29 29 29 28 29 28
25 23 35 34 33 33 37 37 36 34 32 32 29 27 28 27 28 27 25 25 25 25 25 26 27 26 24 25 25 25 25 24 25 25 25 26 27 27 27 27 27 27 27 26
31 33 35 35 33 32 32 31 33 34 33 31 27 28 27 26 24 22 22 23 23 23 23 23 24 25 25 25 24 24 24 24 24 24 24 23 23 24 25 25 25 25 25 25
28 32 33 33 34 34 31 31 29 30 30 29 27 25 23 21 21 21 20 21 21 21 21 22 23 24 25 24 23 22 22 22 23 23 23 23 24 24 24 26 25 24 25 25
27 30 31 29 30 31 29 28 29 27 25 26 24 22 21 19 19 19 19 19 19 19 20 21 21 22 23 23 23 23 23 21 21 21 21 21 20 21 23 23 23 23 23 24
31 30 29 29 29 30 27 27 27 25 25 22 21 20 19 19 19 20 18 17 18 18 19 19 19 20 22 22 21 20 21 21 20 20 20 19 19 18 16 17 19 19 20 20
33 31 27 29 25 26 24 24 23 22 22 21 18 17 17 16 16 16 16 16 16 16 16 16 17 17 19 21 20 19 19 17 19 19 18 18 17 16 15 14 13 12 13 16
29 30 28 28 27 25 23 21 18 17 17 17 17 16 15 14 14 16 16 14 13 13 14 14 14 15 17 17 17 19 19 18 18 18 17 16 15 14 12 11 10 10 9 8
29 28 28 25 23 21 20 18 16 15 15 16 15 15 14 13 13 12 11 11 10 10 11 11 12 12 14 16 17 17 16 15 15 16 15 14 13 11 9 8 8 7 6 7
26 24 23 22 21 20 19 18 17 16 16 15 14 14 12 11 10 9 10 10 9 10 11 11 11 11 13 13 16 16 16 15 13 14 13 12 11 10 8 8 7 6 5 5
24 26 25 22 21 19 19 18 17 16 14 14 13 12 11 10 8 7 7 8 9 8 9 10 12 12 13 13 14 14 14 13 12 11 10 11 9 8 8 7 6 5 5 3
20 20 20 20 19 17 16 15 14 13 12 12 9 7 5 5 5 4 6 6 6 8 8 10 12 10 12 12 10 11 11 12 10 9 8 7 9 7 8 7 6 6 5 4
16 16 16 15 15 14 12 12 12 10 10 7 5 4 2 1 1 2 5 5 6 8 10 10 9 8 8 7 8 8 10 10 7 8 9 7 8 7 7 3 5 5 6 5
11 11 10 10 10 10 9 10 10 8 5 4 4 2 3 1 -0 0 4 5 7 8 8 7 7 6 5 5 4 9 8 8 7 7 7 7 6 5 5 5 6 6 5 5
10 10 9 9 10 9 10 10 7 5 4 2 -0 0 2 3 2 3 3 5 7 5 6 6 5 -1 3 5 5 8 7 6 6 6 6 5 6 6 5 4 4 4 3 3
12 12 10 9 8 8 8 8 7 7 5 4 3 5 7 7 6 5 3 4 6 6 6 6 -1 -2 -3 6 6 5 5 4 4 4 4 4 4 3 4 4 3 2 2 2
13 13 13 13 13 11 10 11 10 8 7 8 5 5 8 8 8 7 5 1 -1 5 7 6 2 -2 -2 5 5 5 4 4 3 3 3 -6 3 2 2 2 1 3 1 -2
14 14 14 14 11 11 11 11 11 10 10 9 8 8 8 7 9 8 8 7 3 3 7 -3 -4 -6 4 6 5 5 5 5 5 4 3 3 2 2 2 2 -0 1 1 -0
15 14 15 16 15 12 12 11 10 11 11 10 10 10 9 8 7 7 7 2 6 4 8 8 6 5 5 5 4 3 4 5 4 4 2 2 2 1 1 1 1 1 1 0
15 14 13 11 11 12 13 13 13 13 12 12 12 10 8 8 7 5 3 8 8 7 7 8 7 4 5 6 5 5 5 5 1 3 4 3 2 2 1 0 1 0 -1 -3

GFSNGP_sfc_dewp_087.txt.gz
Dewpoint
28 29 30 29 28 28 28 28 26 21 16 17 27 30 40 41 39 36 35 34 33 33 34 34 37 39 41 44 49 52 50 50 50 51 54 54 53 52 54 53 53 54 56 56
30 21 20 19 19 16 15 12 11 12 19 36 41 40 42 39 36 34 33 32 32 31 32 32 34 35 37 39 41 44 44 44 44 45 46 45 44 44 44 43 43 43 42 41
26 25 18 16 15 11 16 20 26 29 34 37 37 35 35 36 34 33 33 32 32 31 31 32 33 34 34 36 37 38 39 40 40 40 40 39 39 38 38 38 37 37 37 37
24 20 15 21 18 17 15 29 29 29 32 37 34 32 32 33 33 32 32 33 34 32 31 33 33 34 34 35 35 35 36 37 37 37 36 36 35 34 34 34 34 34 34 34
22 23 12 16 22 23 24 31 33 32 33 35 33 31 31 33 32 31 32 32 32 33 33 33 32 33 33 33 33 34 34 35 36 35 34 34 33 32 32 32 31 31 32 32
21 11 11 27 25 26 26 25 34 33 33 33 36 34 30 32 32 31 32 32 31 32 32 33 33 34 32 31 32 32 32 34 34 35 34 33 33 33 32 32 30 30 30 31
22 17 20 29 28 29 21 31 36 34 32 30 30 30 30 32 32 32 32 32 33 32 31 31 33 33 31 30 30 32 33 34 33 34 34 34 34 34 34 33 32 31 30 30
20 18 18 33 29 30 33 36 35 32 30 28 28 29 30 31 32 32 31 32 32 31 31 32 32 32 30 30 32 30 31 30 31 32 33 33 34 34 33 33 32 32 31 30
32 32 34 33 33 33 34 34 34 31 31 30 30 30 30 30 31 30 29 28 27 26 27 28 29 31 29 30 29 29 29 29 29 28 28 30 31 31 31 31 31 31 30 30
31 32 32 32 32 31 31 31 32 33 31 31 29 30 30 30 30 29 29 28 28 26 25 25 26 26 27 29 30 30 28 26 25 25 26 25 25 25 26 29 29 29 29 28
31 32 31 30 30 31 30 30 31 31 32 31 30 29 29 28 27 27 24 23 22 23 23 23 24 25 26 26 25 25 25 25 26 25 23 23 24 24 23 25 26 26 26 26
29 31 30 29 30 31 30 31 29 28 28 30 28 26 26 26 27 27 26 25 23 22 22 23 24 24 25 27 28 29 28 26 26 26 25 23 21 20 22 22 22 22 23 24
31 31 32 32 31 32 31 28 27 27 28 26 27 27 25 24 25 26 25 23 23 22 22 22 23 24 25 26 28 28 28 27 26 27 26 26 25 23 20 19 18 18 19 19
33 33 30 32 29 29 26 25 25 24 25 26 25 25 24 22 20 19 19 19 19 19 20 20 20 22 24 26 26 26 26 25 25 25 25 24 24 23 23 22 19 16 14 14
33 33 32 31 29 26 24 23 21 20 20 20 20 21 21 20 19 19 17 16 14 14 15 16 17 20 23 23 23 24 25 24 24 24 23 22 21 20 19 19 18 17 17 14
32 32 31 30 27 24 23 23 22 22 22 22 22 21 21 19 17 15 13 14 13 14 15 15 16 18 20 23 24 23 21 20 21 22 21 20 19 17 16 16 16 14 13 13
29 26 25 24 23 23 22 22 21 21 20 19 19 18 16 15 14 13 13 14 15 16 17 16 16 17 19 20 22 21 22 19 17 19 18 17 17 16 16 16 14 12 10 11
28 29 27 25 23 22 21 21 20 20 20 19 19 17 16 15 14 13 14 14 14 14 15 15 16 17 16 18 18 17 17 16 16 16 16 17 15 14 15 14 12 12 13 11
25 24 23 22 22 21 21 20 20 18 18 18 16 14 13 13 13 13 14 14 14 15 14 14 13 13 12 14 14 15 16 17 14 13 13 13 16 14 15 15 14 14 12 12
22 22 22 21 21 20 19 18 18 16 15 13 12 10 9 9 11 11 12 12 13 13 14 12 12 10 9 8 12 12 15 16 12 13 14 14 16 16 14 9 11 13 14 13
21 20 19 18 18 18 18 17 16 13 12 13 12 10 10 9 8 10 14 13 13 11 10 8 7 7 5 7 7 16 15 15 15 14 15 15 16 14 14 13 13 13 13 12
20 18 18 18 18 18 17 15 14 13 12 10 9 10 10 11 10 10 10 12 10 9 9 10 8 6 5 10 11 14 12 12 12 13 13 13 13 13 13 12 11 11 11 11
19 19 18 18 17 16 15 15 14 13 12 11 11 14 14 12 11 12 13 8 9 9 9 12 6 6 6 14 14 13 12 11 11 11 12 12 11 11 11 10 10 10 9 9
19 18 18 17 16 14 13 13 12 13 14 13 13 13 14 16 18 12 11 9 6 11 12 12 9 5 5 13 12 12 11 12 11 12 10 5 11 10 9 9 8 8 8 7
18 17 16 15 12 13 12 12 12 11 12 11 10 10 11 11 16 15 16 14 6 8 14 8 6 6 12 12 12 11 11 11 12 10 9 10 9 9 9 9 8 8 8 8
15 16 16 15 14 14 14 12 14 15 14 17 17 19 20 17 15 12 13 10 10 10 12 17 15 14 13 12 12 11 11 10 11 11 10 8 9 8 8 7 8 7 7 8
18 17 15 14 14 14 15 14 17 17 19 18 17 22 17 18 17 12 12 14 15 15 14 14 15 15 14 13 11 12 12 12 12 10 10 8 8 9 9 9 8 7 8 7

GFSNGP_sfc_dewp_093.txt.gz
Dewpoint
24 24 24 23 22 25 31 35 31 33 34 36 36 36 34 33 32 31 30 30 31 31 32 32 34 35 36 38 41 45 50 50 50 50 50 49 49 48 47 46 46 46 45 44
22 21 21 22 25 32 33 35 35 32 35 36 34 34 33 31 30 29 29 29 29 30 31 32 32 34 35 37 40 39 41 43 45 44 43 43 42 42 41 40 40 40 40 40
16 22 22 24 31 29 32 36 35 33 34 34 31 31 30 30 29 28 28 28 29 30 31 32 32 33 34 34 36 37 36 37 37 39 38 38 37 37 37 37 37 37 36 36
20 22 18 29 29 35 33 31 31 31 32 32 31 30 29 29 28 28 28 28 29 30 31 32 32 33 34 34 34 33 33 34 35 35 35 35 34 34 34 34 34 34 34 34
22 21 30 32 32 30 31 31 31 30 30 31 30 29 28 29 29 29 29 29 30 31 31 32 32 32 32 32 32 32 32 33 33 33 33 33 32 32 32 32 31 31 32 33
26 22 22 30 30 31 32 27 30 29 28 29 32 29 24 30 30 30 31 31 30 31 31 31 32 32 32 31 30 31 31 32 33 34 33 32 32 32 31 30 30 29 29 31
23 23 27 30 30 31 23 28 30 28 26 25 24 26 29 31 31 31 31 31 31 31 30 30 32 32 30 30 30 31 32 32 31 32 32 33 33 32 31 30 29 28 28 29
28 25 20 30 29 28 32 32 30 28 26 25 28 28 28 28 29 29 29 29 30 29 30 31 31 30 28 27 29 29 28 29 29 29 30 30 32 32 32 31 29 29 28 27
30 28 32 29 31 32 33 32 31 28 28 28 25 26 26 27 28 29 28 28 28 27 27 28 31 30 27 28 29 27 26 26 26 26 27 27 26 27 28 30 28 27 25 24
30 30 29 30 30 31 31 31 30 28 27 28 26 26 27 27 28 27 28 27 27 25 25 25 27 30 31 31 29 27 25 24 24 24 24 24 24 25 25 25 24 25 23 22
31 32 30 29 30 31 29 28 28 30 29 27 25 26 25 26 26 26 26 26 25 24 24 25 26 27 29 31 30 29 27 25 24 23 22 22 23 23 23 25 24 22 22 22
24 30 29 29 30 30 30 29 27 26 25 27 25 25 25 24 26 25 25 25 24 25 24 24 25 26 27 27 28 27 27 27 24 22 20 18 18 19 22 23 23 23 22 21
29 31 31 31 32 32 28 28 27 27 25 24 26 26 25 25 27 27 26 25 23 23 22 22 22 23 24 26 25 25 26 26 26 26 25 21 18 16 14 17 19 20 20 21
33 31 27 31 28 30 29 28 27 26 28 28 27 26 25 23 19 17 16 16 16 16 16 18 19 19 21 23 24 24 23 23 23 23 23 22 22 19 19 16 14 15 18 18
32 32 31 33 32 30 26 26 25 25 25 25 25 23 20 16 16 16 16 14 14 14 14 15 16 16 19 21 20 20 22 21 20 20 21 21 21 20 19 18 16 15 15 16
32 31 31 29 27 27 26 24 22 22 22 21 21 20 18 16 15 15 15 15 13 14 16 13 13 13 16 17 21 19 18 19 19 20 19 19 19 18 16 14 11 10 10 10
30 29 29 27 27 26 24 24 24 24 22 21 22 18 15 13 12 13 14 14 12 9 9 9 7 9 12 13 15 18 17 18 17 18 18 18 17 16 15 12 9 8 6 4
28 28 29 27 26 24 22 21 19 18 17 17 16 14 12 12 10 7 6 5 3 5 6 6 5 8 10 12 15 18 17 17 17 15 15 13 16 16 14 14 11 8 5 5
24 24 24 23 21 20 18 18 17 17 15 12 9 5 1 -1 -0 0 2 6 2 2 5 7 15 11 11 13 12 17 15 13 15 14 16 14 10 11 10 9 6 4 8 6
21 20 20 19 18 17 15 12 11 9 4 5 2 1 -1 -3 -3 -1 1 2 2 5 7 9 10 9 9 10 9 15 13 11 14 8 6 7 4 -2 -3 0 1 2 2 4
17 17 15 14 13 12 10 8 9 8 5 4 2 -2 -2 -2 -2 -3 7 11 7 8 10 7 5 5 7 6 10 6 7 6 6 3 -1 -1 5 2 -2 -4 -1 -2 -3 -3
12 14 14 14 10 9 6 7 7 4 2 0 -1 -2 -1 3 0 4 0 9 11 3 9 8 7 -1 3 2 12 2 5 4 3 2 2 -0 -2 -2 3 7 1 2 -1 -3
19 19 18 11 9 9 9 9 6 6 1 -1 0 3 6 12 13 9 8 10 11 7 9 4 -1 -4 -4 0 -1 -2 -2 4 -2 -3 -3 -6 -8 -7 -6 -4 -4 -3 -5 -1
18 16 15 15 15 15 14 14 14 13 6 9 5 2 11 7 13 14 9 2 -1 -5 -0 -3 -4 -2 -5 -6 5 -1 -3 -4 -4 4 3 -1 -1 5 1 -0 -5 -8 -8 -8
18 18 18 16 17 16 15 15 15 15 14 15 13 11 13 15 7 8 8 5 4 0 1 1 -1 -2 -8 -6 -2 -3 -4 -4 -0 -5 -8 -10 -9 -7 -8 -4 1 -1 -2 -6
18 17 18 17 18 18 17 16 15 18 17 12 14 14 12 10 9 7 4 5 6 4 0 0 -1 -1 -2 -1 -4 -1 -2 -1 1 1 0 5 1 -0 -0 2 0 -2 -4 -2
19 16 17 16 17 16 14 15 13 10 8 4 4 8 18 17 10 7 3 1 3 3 9 10 12 11 9 7 3 -1 -3 -2 1 2 -1 -2 -3 -7 -9 -6 -4 -2 -2 -3

GFSNGP_sfc_dewp_099.txt.gz
Dewpoint
23 23 23 20 18 19 19 20 19 21 28 34 34 32 32 29 28 28 27 28 28 28 30 30 32 32 33 35 37 38 39 41 45 51 52 52 50 50 49 49 50 50 48 45
22 19 17 17 17 18 20 23 23 21 29 35 34 32 28 28 27 26 26 27 28 28 29 29 31 32 32 33 35 36 36 36 38 41 44 43 42 43 43 41 41 40 39 39
12 15 16 13 20 20 19 32 30 30 32 32 29 27 26 26 26 25 26 26 27 28 29 30 30 32 31 32 33 34 34 35 34 35 36 36 36 36 36 37 37 36 36 35
14 17 8 23 32 29 28 32 34 33 33 31 27 27 27 27 25 25 26 26 27 28 28 30 30 30 30 30 31 31 32 33 34 33 32 32 32 32 33 33 34 34 33 33
11 15 18 23 31 30 29 26 30 29 30 28 27 25 25 28 28 27 28 28 28 29 29 29 29 30 29 28 28 28 29 30 32 32 32 31 30 30 31 31 31 31 31 32
18 16 16 25 30 35 35 22 28 25 26 29 28 26 22 28 28 27 28 27 27 29 28 28 28 28 26 26 26 26 27 28 29 32 31 30 30 30 30 30 29 30 30 30
17 17 23 28 31 34 26 24 27 25 26 29 26 26 27 28 27 27 27 28 28 28 28 27 27 26 24 23 24 26 27 27 27 28 30 30 30 29 29 29 28 28 28 29
22 20 18 30 30 27 29 29 27 25 26 25 25 25 25 26 26 25 25 25 26 26 26 29 27 25 23 23 25 25 25 25 25 26 27 28 28 28 28 27 26 26 27 27
25 23 30 30 29 33 31 28 28 26 26 25 23 23 24 24 24 24 25 25 25 25 25 26 27 27 24 25 24 24 23 23 24 25 25 26 25 25 25 25 25 25 26 26
25 28 28 29 29 30 29 28 28 27 27 25 23 23 23 23 23 23 24 23 24 23 22 23 25 26 28 26 24 22 22 22 23 24 23 24 24 24 23 23 23 23 24 25
25 28 28 28 28 28 28 27 26 26 25 24 23 23 23 22 22 23 23 23 22 21 21 21 22 23 25 26 26 22 20 20 20 20 21 23 24 23 23 25 25 23 24 25
21 28 27 27 30 29 26 25 25 23 22 24 22 22 23 21 21 21 20 20 19 20 19 20 21 21 22 24 25 25 24 21 19 18 19 19 21 23 26 26 25 25 26 26
26 29 29 28 29 27 25 25 24 24 23 23 23 22 21 20 20 19 17 17 17 18 18 18 19 19 20 23 22 20 20 21 20 18 16 15 15 16 15 18 22 25 25 23
30 28 25 28 26 28 27 26 26 25 24 23 22 21 19 17 14 13 12 14 15 15 14 15 16 16 18 21 21 20 19 18 19 19 17 16 15 15 15 14 13 14 20 21
30 28 27 28 28 28 27 25 23 22 21 20 19 19 18 15 14 14 14 13 12 12 11 11 11 13 15 19 18 17 19 17 15 15 15 16 16 15 14 13 12 12 13 14
30 29 29 28 27 25 24 23 21 21 20 18 17 16 16 15 14 13 12 11 10 9 9 5 8 8 12 14 17 16 15 16 15 15 14 14 13 11 10 10 9 8 9 8
26 25 25 24 24 23 22 21 20 21 20 18 15 14 12 11 10 11 10 10 6 3 2 2 1 5 10 10 13 11 12 14 11 14 14 13 10 8 8 6 7 7 3 0
29 28 27 25 24 23 22 22 22 21 18 17 14 11 8 8 8 5 0 -2 1 2 1 1 1 6 8 11 14 14 13 14 14 13 13 10 11 11 7 6 6 5 1 -1
26 26 25 24 24 22 21 19 17 16 14 12 11 7 1 -5 -5 -6 -6 -3 -5 -2 0 0 12 8 10 13 12 12 10 9 12 12 11 7 5 7 1 -1 -1 -4 -1 0
20 20 19 17 16 15 13 10 10 8 4 5 2 -1 -1 -8 -11 -8 -6 -2 -1 2 3 5 6 8 10 10 7 10 8 5 10 4 1 1 -8 -11 -7 -2 -1 -4 -8 -9
13 13 11 9 6 5 2 -0 3 2 -3 -7 -3 -8 -7 -9 -10 -10 1 6 3 6 10 5 3 4 7 6 7 -4 -1 -4 -4 -2 -5 -5 -3 -2 -9 -10 -6 -3 -4 -5
5 8 5 3 4 1 -2 -1 2 -2 -4 -6 -12 -12 -8 1 -3 1 -3 7 9 2 6 5 4 -6 -0 2 4 -5 -1 -1 -4 -5 -7 -8 -9 -8 -4 -2 -1 -2 -6 -6
8 7 6 3 3 2 3 1 -3 -1 -4 -5 -4 -2 3 8 8 5 4 9 11 4 7 2 -4 -6 -8 -11 -10 -11 -10 -9 -10 -10 -12 -17 -16 -17 -15 -12 -11 -11 -10 -10
8 9 7 8 10 11 9 10 8 8 -2 5 1 -4 8 5 2 12 10 3 1 -3 -4 -6 -6 -4 -8 -14 -13 -13 -13 -13 -13 -14 -11 -10 -18 -19 -17 -5 -12 -16 -18 -16
14 14 13 13 12 12 12 12 13 13 13 12 12 11 8 13 5 5 1 -1 1 -1 -4 -6 -5 -4 -11 -15 -15 -15 -13 -14 -13 -16 -13 -14 -13 -15 -16 -17 -15 -13 -14 -9
17 15 15 14 16 17 16 15 13 13 12 8 7 4 6 7 8 9 2 -0 -0 2 -1 -1 -5 -4 -2 -2 -3 -5 -5 -4 -5 -7 -10 -7 -8 -9 -12 -11 -12 -10 -11 -9
18 17 17 16 15 16 15 15 13 8 7 5 4 -0 1 2 6 8 7 4 5 4 6 5 6 6 4 4 5 7 8 7 5 4 0 -5 -6 -6 -6 -6 -8 -8 -9 -11

GFSNGP_sfc_dewp_105.txt.gz
Dewpoint
17 17 21 19 18 19 18 18 16 17 18 22 23 31 30 29 28 27 27 26 26 27 28 27 27 28 28 30 31 33 36 36 36 36 37 38 42 47 57 57 56 56 53 49
17 18 17 14 13 16 15 16 16 14 18 21 31 30 27 27 27 26 26 25 25 26 26 26 27 27 28 29 30 31 33 34 36 36 34 34 35 37 39 40 41 41 40 39
12 13 10 6 11 15 18 24 21 21 23 30 28 26 25 26 26 25 25 25 25 26 27 27 27 28 28 29 29 29 30 31 33 34 35 33 32 33 34 34 35 35 35 35
12 14 1 14 29 29 28 27 28 29 34 30 26 26 26 27 26 24 25 25 26 27 26 28 28 28 28 28 28 27 27 28 30 31 33 34 33 31 31 32 32 32 33 33
12 11 11 18 26 28 26 25 29 28 27 26 26 25 25 27 26 26 27 27 27 28 28 27 27 27 26 26 27 26 26 27 28 29 29 31 31 31 31 30 31 31 31 31
16 10 9 21 26 28 32 23 28 28 27 26 27 25 21 26 26 26 27 27 27 27 28 27 27 27 25 24 25 25 26 27 28 28 28 28 28 29 30 29 28 28 28 29
16 15 17 25 28 33 23 21 26 27 29 30 23 24 25 26 26 27 26 26 27 27 26 27 28 26 24 23 23 26 27 27 27 28 28 29 29 30 30 29 28 27 26 27
19 16 14 27 27 23 26 27 26 26 26 23 24 24 24 24 24 24 24 24 25 25 25 26 27 25 23 23 25 25 26 26 27 27 28 29 28 29 29 30 28 27 27 26
24 22 28 29 28 30 30 27 27 25 26 25 23 22 23 23 23 23 23 24 23 22 22 24 25 25 23 24 23 24 24 25 27 27 27 28 28 28 28 29 29 28 27 26
26 27 26 28 28 28 28 27 27 27 25 25 22 23 22 23 23 22 23 22 20 20 20 21 22 24 25 25 23 23 23 24 25 25 25 27 26 27 27 27 27 27 27 26
25 27 26 27 27 27 26 26 25 26 25 24 23 22 21 21 20 21 20 19 19 18 18 19 19 21 23 22 19 14 18 21 22 22 23 23 26 26 26 28 27 26 27 27
22 28 25 25 27 27 25 25 25 23 23 23 21 20 20 19 20 20 19 18 18 18 18 19 19 20 21 22 21 19 17 17 19 19 20 21 21 21 24 24 24 24 24 25
25 27 27 27 27 26 24 24 24 23 22 21 22 21 19 19 20 19 17 16 16 16 16 16 18 19 21 23 22 21 20 20 19 19 19 20 20 20 19 19 20 20 20 21
27 27 25 26 23 26 25 25 24 22 21 21 20 19 15 13 14 13 13 12 12 13 14 15 15 16 18 21 21 21 21 18 19 19 18 18 18 17 16 15 15 15 16 18
28 28 26 26 26 25 23 22 20 20 19 19 18 16 12 11 12 12 12 10 9 11 12 13 13 14 16 19 18 19 21 20 19 18 16 16 16 16 15 14 13 13 12 12
26 26 26 24 24 24 23 21 20 19 19 18 17 15 13 11 10 9 8 7 7 8 9 10 12 12 15 17 18 18 19 17 17 17 16 15 15 15 14 13 12 12 10 11
25 25 25 24 23 23 22 21 20 19 19 18 14 9 9 9 8 8 7 7 6 6 7 9 10 11 14 15 18 18 19 18 16 17 15 14 15 14 13 13 12 11 11 10
28 27 26 25 24 23 23 22 21 20 19 17 15 13 11 11 9 7 5 5 7 8 8 6 12 13 14 16 16 16 16 16 16 16 16 16 13 13 14 13 12 11 11 9
29 28 27 25 24 22 22 21 19 18 16 13 12 10 9 7 8 7 5 7 7 10 10 9 12 13 13 14 13 14 15 15 14 13 13 12 15 13 14 15 14 14 13 12
23 23 22 21 20 20 17 16 15 11 10 10 8 9 8 4 3 5 6 9 9 11 10 7 8 11 12 10 9 10 12 13 12 12 13 13 14 14 14 10 12 14 14 14
17 17 15 12 9 9 10 10 9 7 6 7 9 7 8 5 3 4 12 10 10 11 9 4 4 3 8 8 8 13 12 13 12 12 12 11 12 11 12 12 13 13 13 13
13 11 9 8 8 6 5 8 6 4 4 3 -0 1 4 9 7 8 8 11 10 6 8 7 6 1 2 6 10 13 12 11 11 12 12 12 11 11 10 10 11 12 12 12
11 10 9 8 9 7 7 6 5 4 4 4 4 6 11 12 12 12 11 11 11 9 10 12 5 1 -0 10 11 11 11 11 11 11 11 11 11 11 10 10 10 10 11 11
11 11 10 10 10 9 8 7 6 8 9 10 9 8 13 15 15 14 14 9 6 7 11 11 8 3 -1 10 10 9 9 10 9 10 10 4 10 10 9 10 9 10 10 8
12 12 10 10 6 6 6 8 10 10 10 11 12 9 9 12 17 16 16 14 6 9 14 5 3 3 11 11 10 10 11 11 11 10 9 9 9 9 10 10 9 10 10 9
12 10 10 10 9 10 10 11 13 14 15 15 15 14 14 14 14 14 15 12 12 10 12 11 9 10 10 10 10 10 10 10 10 10 9 9 9 9 9 8 8 8 8 9
14 14 15 16 17 17 15 15 17 16 15 15 12 11 11 11 12 12 10 11 9 7 6 6 6 4 4 5 6 7 7 8 7 6 7 7 7 7 7 8 9 9 8 7